Location: Mahannah Oil Field
(37.4664°N, 96.6003°W)
Time: 11:46:57
(UTC+00:00)

Altair - Pass Details

Date: 28 January 2021
Orbit: 1501 x 1682 km, 47.2° (Epoch: 24 February)

Event Time Altitude Azimuth Distance (km) Brightness Sun altitude
Exits shadow 11:21:55 43° 274° (W) 2,189 7.8 -26.0°
Maximum altitude 11:25:31 65° 337° (NNW) 1,802 7.6 -25.3°
Drops below altitude 10° 11:35:39 10° 59° (ENE) 3,949 10.3 -23.3°
Sets 11:38:54 0° 62° (ENE) 4,936 11.1 -22.7°
